| time (UTC) | temp F | wind direction | speed MPH | gust MPH | rain 1hr in | rain 24hr in | rain mn in | humidity % | barometer mb |
| 20260510004042 | 40 | 0 | 0.0 | 0.0 | 0.00 | 0.12 | 0.00 | 82 | 1010.8 |
| 20260510003551 | 40 | 0 | 0.0 | 0.0 | 0.00 | 0.12 | 0.00 | 81 | 1011.0 |
| 20260510003057 | 40 | 0 | 0.0 | 0.0 | 0.00 | 0.12 | 0.00 | 81 | 1011.0 |
| 20260510002542 | 40 | 0 | 0.0 | 0.0 | 0.00 | 0.12 | 0.00 | 82 | 1011.1 |
| 20260510002041 | 40 | 0 | 0.0 | 0.0 | 0.00 | 0.12 | 0.00 | 82 | 1011.1 |
| 20260510001551 | 40 | 0 | 0.0 | 0.0 | 0.00 | 0.12 | 0.00 | 82 | 1011.2 |
| 20260510001043 | 40 | 0 | 0.0 | 0.0 | 0.00 | 0.12 | 0.00 | 82 | 1011.2 |
| 20260510000557 | 40 | 0 | 0.0 | 0.0 | 0.00 | 0.12 | 0.00 | 82 | 1011.2 |
| 20260510000058 | 40 | 0 | 0.0 | 0.0 | 0.00 | 0.12 | 0.00 | 83 | 1011.3 |
| 20260509235543 | 40 | 0 | 0.0 | 0.0 | 0.00 | 0.12 | 0.00 | 83 | 1011.2 |
| 20260509235042 | 40 | 0 | 0.0 | 0.0 | 0.00 | 0.12 | 0.00 | 83 | 1011.5 |
| 20260509234559 | 40 | 0 | 0.0 | 0.0 | 0.00 | 0.12 | 0.00 | 82 | 1011.4 |
| 20260509234042 | 40 | 0 | 0.0 | 0.0 | 0.00 | 0.12 | 0.00 | 83 | 1011.4 |
| 20260509233542 | 40 | 0 | 0.0 | 0.0 | 0.00 | 0.12 | 0.00 | 83 | 1011.4 |
| 20260509233050 | 40 | 0 | 0.0 | 0.0 | 0.00 | 0.12 | 0.00 | 83 | 1011.4 |
| 20260509232542 | 41 | 0 | 0.0 | 0.0 | 0.00 | 0.12 | 0.00 | 83 | 1011.6 |
| 20260509232041 | 41 | 0 | 0.0 | 0.0 | 0.00 | 0.12 | 0.00 | 82 | 1011.7 |
| 20260509231607 | 41 | 0 | 0.0 | 0.0 | 0.00 | 0.12 | 0.00 | 82 | 1011.8 |
| 20260509231045 | 41 | 0 | 0.0 | 0.0 | 0.00 | 0.12 | 0.00 | 82 | 1011.8 |
| 20260509230542 | 41 | 0 | 0.0 | 0.0 | 0.00 | 0.12 | 0.00 | 82 | 1011.8 |
| 20260509230103 | 41 | 0 | 0.0 | 0.0 | 0.00 | 0.12 | 0.00 | 82 | 1011.9 |
| 20260509225541 | 41 | 0 | 0.0 | 0.0 | 0.00 | 0.12 | 0.00 | 82 | 1011.9 |
| 20260509225041 | 41 | 0 | 0.0 | 0.0 | 0.00 | 0.12 | 0.00 | 82 | 1012.1 |
| 20260509224551 | 41 | 0 | 0.0 | 0.0 | 0.00 | 0.12 | 0.00 | 82 | 1012.1 |
| 20260509224046 | 41 | 0 | 0.0 | 0.0 | 0.00 | 0.12 | 0.00 | 83 | 1012.2 |
| 20260509223542 | 41 | 0 | 0.0 | 0.0 | 0.00 | 0.12 | 0.00 | 83 | 1012.1 |
| 20260509223048 | 41 | 0 | 0.0 | 0.0 | 0.00 | 0.12 | 0.00 | 83 | 1012.2 |
| 20260509222545 | 41 | 0 | 0.0 | 0.0 | 0.00 | 0.12 | 0.00 | 83 | 1012.2 |
| 20260509222043 | 41 | 0 | 0.0 | 0.0 | 0.00 | 0.12 | 0.00 | 83 | 1012.1 |
| 20260509221546 | 41 | 0 | 0.0 | 0.0 | 0.00 | 0.12 | 0.00 | 83 | 1012.4 |
| 20260509221046 | 41 | 0 | 0.0 | 0.0 | 0.00 | 0.12 | 0.00 | 83 | 1012.7 |
| 20260509220542 | 41 | 0 | 0.0 | 0.0 | 0.00 | 0.12 | 0.00 | 83 | 1012.4 |
| 20260509220050 | 41 | 0 | 0.0 | 0.0 | 0.00 | 0.12 | 0.00 | 82 | 1012.8 |
| 20260509215542 | 41 | 0 | 0.0 | 0.0 | 0.00 | 0.12 | 0.12 | 81 | 1012.9 |
| 20260509215042 | 41 | 0 | 0.0 | 0.0 | 0.00 | 0.12 | 0.12 | 82 | 1012.9 |
| 20260509214545 | 41 | 0 | 0.0 | 0.0 | 0.00 | 0.12 | 0.12 | 82 | 1013.0 |
| 20260509214042 | 41 | 0 | 0.0 | 0.0 | 0.00 | 0.12 | 0.12 | 81 | 1013.0 |
| 20260509213542 | 41 | 0 | 0.0 | 0.0 | 0.00 | 0.12 | 0.12 | 81 | 1013.0 |
| 20260509213049 | 41 | 0 | 0.0 | 0.0 | 0.00 | 0.12 | 0.12 | 81 | 1013.0 |
| 20260509212541 | 41 | 0 | 0.0 | 0.0 | 0.00 | 0.12 | 0.12 | 82 | 1013.0 |
| 20260509212045 | 41 | 0 | 0.0 | 0.0 | 0.00 | 0.12 | 0.12 | 82 | 1012.9 |
| 20260509211552 | 41 | 0 | 0.0 | 0.0 | 0.00 | 0.12 | 0.12 | 82 | 1012.9 |
| 20260509211048 | 41 | 0 | 0.0 | 0.0 | 0.01 | 0.12 | 0.12 | 82 | 1013.0 |
| 20260509210543 | 40 | 0 | 0.0 | 0.0 | 0.01 | 0.12 | 0.12 | 82 | 1013.0 |
| 20260509210105 | 40 | 0 | 0.0 | 1.0 | 0.02 | 0.12 | 0.12 | 82 | 1013.0 |
| 20260509205544 | 40 | 0 | 0.0 | 4.0 | 0.02 | 0.12 | 0.12 | 82 | 1013.2 |
| 20260509205042 | 40 | 0 | 0.0 | 7.0 | 0.02 | 0.12 | 0.12 | 82 | 1013.2 |
| 20260509204553 | 40 | 295 | 2.0 | 7.0 | 0.02 | 0.11 | 0.11 | 82 | 1013.3 |
| 20260509204042 | 40 | 273 | 2.0 | 9.0 | 0.03 | 0.11 | 0.11 | 82 | 1013.3 |
| 20260509203546 | 40 | 248 | 2.0 | 10.0 | 0.03 | 0.11 | 0.11 | 82 | 1013.4 |
| 20260509203048 | 40 | 278 | 3.0 | 11.0 | 0.03 | 0.11 | 0.11 | 82 | 1013.4 |
| 20260509202542 | 40 | 246 | 5.0 | 13.0 | 0.03 | 0.11 | 0.11 | 82 | 1013.4 |
| 20260509202044 | 40 | 295 | 5.0 | 13.0 | 0.05 | 0.11 | 0.11 | 82 | 1013.4 |
| 20260509201559 | 41 | 269 | 6.0 | 13.0 | 0.05 | 0.11 | 0.11 | 83 | 1013.5 |
| 20260509201041 | 41 | 275 | 6.0 | 14.0 | 0.05 | 0.11 | 0.11 | 83 | 1013.5 |
| 20260509200541 | 41 | 247 | 7.0 | 14.0 | 0.05 | 0.11 | 0.11 | 82 | 1013.6 |
| 20260509200052 | 41 | 207 | 8.0 | 13.0 | 0.04 | 0.10 | 0.10 | 82 | 1013.6 |
| 20260509195546 | 41 | 243 | 8.0 | 18.0 | 0.05 | 0.10 | 0.10 | 81 | 1013.6 |
| 20260509195042 | 42 | 263 | 8.0 | 18.0 | 0.05 | 0.10 | 0.10 | 81 | 1013.7 |
| 20260509194550 | 42 | 234 | 11.0 | 18.0 | 0.04 | 0.09 | 0.09 | 80 | 1013.7 |
| 20260509194045 | 43 | 256 | 9.0 | 18.0 | 0.03 | 0.08 | 0.08 | 80 | 1013.8 |
| 20260509193542 | 43 | 259 | 7.0 | 18.0 | 0.04 | 0.08 | 0.08 | 79 | 1013.6 |
| 20260509193057 | 44 | 246 | 10.0 | 20.0 | 0.03 | 0.07 | 0.07 | 77 | 1013.7 |
| 20260509192543 | 45 | 279 | 9.0 | 20.0 | 0.03 | 0.07 | 0.07 | 77 | 1013.8 |
| 20260509192043 | 46 | 161 | 2.0 | 5.0 | 0.03 | 0.06 | 0.06 | 78 | 1013.7 |
| 20260509191553 | 46 | 0 | 0.0 | 0.0 | 0.03 | 0.06 | 0.06 | 77 | 1013.5 |
| 20260509191042 | 46 | 0 | 0.0 | 1.0 | 0.02 | 0.05 | 0.05 | 76 | 1013.4 |
| 20260509190541 | 46 | 0 | 0.0 | 1.0 | 0.02 | 0.05 | 0.05 | 76 | 1013.4 |
| 20260509190104 | 47 | 0 | 0.0 | 1.0 | 0.02 | 0.05 | 0.05 | 76 | 1013.4 |
| 20260509185542 | 47 | 0 | 0.0 | 1.0 | 0.02 | 0.04 | 0.04 | 76 | 1013.3 |
| 20260509185042 | 47 | 0 | 0.0 | 1.0 | 0.02 | 0.04 | 0.04 | 76 | 1013.3 |
| 20260509184552 | 47 | 0 | 0.0 | 0.0 | 0.02 | 0.04 | 0.04 | 76 | 1013.3 |
| 20260509184041 | 47 | 0 | 0.0 | 0.0 | 0.01 | 0.03 | 0.03 | 76 | 1013.3 |
| 20260509183543 | 47 | 0 | 0.0 | 0.0 | 0.01 | 0.03 | 0.03 | 76 | 1013.3 |
| 20260509183048 | 47 | 0 | 0.0 | 0.0 | 0.02 | 0.03 | 0.03 | 76 | 1013.3 |
| 20260509182542 | 47 | 0 | 0.0 | 0.0 | 0.02 | 0.03 | 0.03 | 76 | 1013.4 |
| 20260509182041 | 47 | 0 | 0.0 | 0.0 | 0.01 | 0.03 | 0.03 | 76 | 1013.4 |
| 20260509181545 | 47 | 0 | 0.0 | 0.0 | 0.01 | 0.03 | 0.03 | 76 | 1013.5 |
| 20260509181042 | 47 | 0 | 0.0 | 0.0 | 0.02 | 0.03 | 0.03 | 76 | 1013.5 |
| 20260509180542 | 47 | 0 | 0.0 | 1.0 | 0.02 | 0.03 | 0.03 | 75 | 1013.5 |
| 20260509180100 | 47 | 0 | 0.0 | 1.0 | 0.02 | 0.03 | 0.03 | 75 | 1013.6 |
| 20260509175542 | 47 | 0 | 0.0 | 1.0 | 0.01 | 0.02 | 0.02 | 75 | 1013.6 |
| 20260509175042 | 47 | 0 | 0.0 | 1.0 | 0.01 | 0.02 | 0.02 | 75 | 1013.6 |
| 20260509174555 | 47 | 0 | 0.0 | 2.0 | 0.01 | 0.02 | 0.02 | 74 | 1013.6 |
| 20260509174042 | 47 | 0 | 0.0 | 2.0 | 0.01 | 0.02 | 0.02 | 74 | 1013.6 |
| 20260509173542 | 47 | 96 | 0.0 | 1.0 | 0.02 | 0.02 | 0.02 | 74 | 1013.7 |
| 20260509173057 | 47 | 96 | 0.0 | 2.0 | 0.01 | 0.01 | 0.01 | 74 | 1013.8 |
| 20260509172542 | 48 | 0 | 0.0 | 2.0 | 0.01 | 0.01 | 0.01 | 74 | 1013.8 |
| 20260509172043 | 48 | 96 | 0.0 | 2.0 | 0.01 | 0.01 | 0.01 | 74 | 1013.9 |
| 20260509171554 | 48 | 0 | 0.0 | 2.0 | 0.01 | 0.01 | 0.01 | 74 | 1013.9 |
| 20260509171044 | 48 | 0 | 0.0 | 2.0 | 0.00 | 0.00 | 0.00 | 74 | 1014.0 |
| 20260509170544 | 48 | 0 | 0.0 | 3.0 | 0.00 | 0.00 | 0.00 | 73 | 1014.1 |
| 20260509170101 | 48 | 0 | 0.0 | 3.0 | 0.00 | 0.00 | 0.00 | 73 | 1014.1 |
| 20260509165547 | 48 | 0 | 0.0 | 1.0 | 0.00 | 0.00 | 0.00 | 73 | 1014.2 |
| 20260509165043 | 48 | 0 | 0.0 | 2.0 | 0.00 | 0.00 | 0.00 | 73 | 1014.2 |
| 20260509164550 | 48 | 0 | 0.0 | 2.0 | 0.00 | 0.00 | 0.00 | 73 | 1014.2 |
| 20260509164043 | 48 | 0 | 0.0 | 3.0 | 0.00 | 0.00 | 0.00 | 73 | 1014.3 |
| 20260509163542 | 48 | 0 | 1.0 | 4.0 | 0.00 | 0.00 | 0.00 | 73 | 1014.3 |
| 20260509163102 | 48 | 98 | 1.0 | 4.0 | 0.00 | 0.00 | 0.00 | 72 | 1014.4 |
| 20260509162543 | 48 | 99 | 2.0 | 6.0 | 0.00 | 0.00 | 0.00 | 72 | 1014.5 |
| 20260509162043 | 48 | 97 | 1.0 | 6.0 | 0.00 | 0.00 | 0.00 | 72 | 1014.6 |
| 20260509161555 | 48 | 100 | 1.0 | 4.0 | 0.00 | 0.00 | 0.00 | 72 | 1014.6 |
| 20260509161043 | 48 | 97 | 1.0 | 7.0 | 0.00 | 0.00 | 0.00 | 71 | 1014.7 |
| 20260509160543 | 48 | 0 | 1.0 | 7.0 | 0.00 | 0.00 | 0.00 | 71 | 1014.7 |
| 20260509160057 | 49 | 98 | 0.0 | 4.0 | 0.00 | 0.00 | 0.00 | 71 | 1014.7 |
| 20260509155546 | 49 | 0 | 0.0 | 6.0 | 0.00 | 0.00 | 0.00 | 71 | 1014.9 |
| 20260509155047 | 49 | 96 | 0.0 | 6.0 | 0.00 | 0.00 | 0.00 | 70 | 1014.9 |
| 20260509154558 | 49 | 0 | 1.0 | 6.0 | 0.00 | 0.00 | 0.00 | 70 | 1015.0 |
| 20260509154043 | 49 | 0 | 0.0 | 6.0 | 0.00 | 0.00 | 0.00 | 70 | 1015.0 |
| 20260509153543 | 49 | 102 | 1.0 | 4.0 | 0.00 | 0.00 | 0.00 | 70 | 1015.1 |
| 20260509153050 | 49 | 103 | 0.0 | 4.0 | 0.00 | 0.00 | 0.00 | 68 | 1015.1 |
| 20260509152543 | 49 | 103 | 0.0 | 4.0 | 0.00 | 0.00 | 0.00 | 68 | 1015.2 |
| 20260509152043 | 50 | 90 | 0.0 | 3.0 | 0.00 | 0.00 | 0.00 | 67 | 1015.2 |
| 20260509151553 | 50 | 0 | 0.0 | 3.0 | 0.00 | 0.00 | 0.00 | 67 | 1015.2 |
| 20260509151042 | 50 | 0 | 0.0 | 2.0 | 0.00 | 0.00 | 0.00 | 67 | 1015.3 |
| 20260509150542 | 50 | 0 | 0.0 | 2.0 | 0.00 | 0.00 | 0.00 | 66 | 1015.3 |
| 20260509150106 | 50 | 0 | 0.0 | 0.0 | 0.00 | 0.00 | 0.00 | 66 | 1015.3 |
| 20260509145547 | 50 | 0 | 0.0 | 4.0 | 0.00 | 0.00 | 0.00 | 66 | 1015.5 |
| 20260509145044 | 50 | 0 | 0.0 | 5.0 | 0.00 | 0.00 | 0.00 | 65 | 1015.5 |
| 20260509144600 | 50 | 352 | 2.0 | 5.0 | 0.00 | 0.00 | 0.00 | 64 | 1015.5 |
| 20260509144045 | 50 | 346 | 0.0 | 3.0 | 0.00 | 0.00 | 0.00 | 63 | 1015.6 |
| 20260509143543 | 49 | 0 | 0.0 | 4.0 | 0.00 | 0.00 | 0.00 | 63 | 1015.8 |
| 20260509143053 | 50 | 134 | 1.0 | 4.0 | 0.00 | 0.00 | 0.00 | 62 | 1015.8 |
| 20260509142543 | 50 | 132 | 0.0 | 7.0 | 0.00 | 0.00 | 0.00 | 62 | 1015.7 |
| 20260509142043 | 50 | 127 | 2.0 | 7.0 | 0.00 | 0.00 | 0.00 | 62 | 1015.8 |
| 20260509141552 | 50 | 121 | 2.0 | 5.0 | 0.00 | 0.00 | 0.00 | 61 | 1015.8 |
| 20260509141043 | 50 | 174 | 1.0 | 3.0 | 0.00 | 0.00 | 0.00 | 61 | 1015.9 |
| 20260509140544 | 50 | 192 | 1.0 | 5.0 | 0.00 | 0.00 | 0.00 | 60 | 1015.9 |
| 20260509140058 | 50 | 225 | 2.0 | 7.0 | 0.00 | 0.00 | 0.00 | 61 | 1016.0 |
| 20260509135548 | 50 | 251 | 3.0 | 7.0 | 0.00 | 0.00 | 0.00 | 59 | 1015.8 |
| 20260509135046 | 50 | 249 | 4.0 | 7.0 | 0.00 | 0.00 | 0.00 | 59 | 1015.9 |
| 20260509134553 | 51 | 243 | 2.0 | 10.0 | 0.00 | 0.00 | 0.00 | 58 | 1016.0 |
| 20260509134043 | 51 | 144 | 4.0 | 10.0 | 0.00 | 0.00 | 0.00 | 57 | 1016.1 |
| 20260509133543 | 51 | 145 | 2.0 | 8.0 | 0.00 | 0.00 | 0.00 | 55 | 1016.1 |
| 20260509133059 | 52 | 214 | 4.0 | 8.0 | 0.00 | 0.00 | 0.00 | 54 | 1016.1 |
| 20260509132543 | 52 | 238 | 2.0 | 7.0 | 0.00 | 0.00 | 0.00 | 54 | 1016.1 |
| 20260509132044 | 52 | 0 | 1.0 | 6.0 | 0.00 | 0.00 | 0.00 | 54 | 1016.1 |
| 20260509131551 | 52 | 263 | 1.0 | 6.0 | 0.00 | 0.00 | 0.00 | 54 | 1016.1 |
| 20260509131043 | 52 | 0 | 0.0 | 6.0 | 0.00 | 0.00 | 0.00 | 54 | 1016.2 |
| 20260509130543 | 53 | 167 | 2.0 | 8.0 | 0.00 | 0.00 | 0.00 | 53 | 1016.2 |
| 20260509130055 | 53 | 175 | 1.0 | 8.0 | 0.00 | 0.00 | 0.00 | 54 | 1016.2 |
| 20260509125543 | 53 | 263 | 3.0 | 8.0 | 0.00 | 0.00 | 0.00 | 55 | 1016.3 |
| 20260509125043 | 53 | 236 | 3.0 | 8.0 | 0.00 | 0.00 | 0.00 | 54 | 1016.3 |
| 20260509124558 | 53 | 171 | 2.0 | 9.0 | 0.00 | 0.00 | 0.00 | 53 | 1016.4 |
| 20260509124044 | 53 | 158 | 4.0 | 11.0 | 0.00 | 0.00 | 0.00 | 52 | 1016.4 |
| 20260509123544 | 53 | 104 | 5.0 | 11.0 | 0.00 | 0.00 | 0.00 | 50 | 1016.3 |
| 20260509123050 | 53 | 112 | 6.0 | 9.0 | 0.00 | 0.00 | 0.00 | 50 | 1016.3 |
| 20260509122544 | 54 | 131 | 3.0 | 9.0 | 0.00 | 0.00 | 0.00 | 49 | 1016.3 |
| 20260509122043 | 54 | 168 | 3.0 | 7.0 | 0.00 | 0.00 | 0.00 | 48 | 1016.3 |
| 20260509121559 | 54 | 142 | 2.0 | 8.0 | 0.00 | 0.00 | 0.00 | 48 | 1016.3 |
| 20260509121048 | 54 | 139 | 3.0 | 8.0 | 0.00 | 0.00 | 0.00 | 48 | 1016.3 |
| 20260509120544 | 55 | 94 | 3.0 | 8.0 | 0.00 | 0.00 | 0.00 | 48 | 1016.3 |
| 20260509120059 | 55 | 105 | 3.0 | 8.0 | 0.00 | 0.00 | 0.00 | 48 | 1016.3 |
| 20260509115543 | 55 | 93 | 3.0 | 8.0 | 0.00 | 0.00 | 0.00 | 48 | 1016.3 |
| 20260509115043 | 55 | 92 | 2.0 | 4.0 | 0.00 | 0.00 | 0.00 | 49 | 1016.3 |
| 20260509114559 | 55 | 0 | 1.0 | 3.0 | 0.00 | 0.00 | 0.00 | 50 | 1016.3 |
| 20260509114043 | 55 | 0 | 0.0 | 3.0 | 0.00 | 0.00 | 0.00 | 50 | 1016.2 |
| 20260509113545 | 55 | 0 | 0.0 | 3.0 | 0.00 | 0.00 | 0.00 | 51 | 1016.2 |
| 20260509113051 | 55 | 0 | 1.0 | 3.0 | 0.00 | 0.00 | 0.00 | 50 | 1016.3 |
| 20260509112541 | 55 | 0 | 0.0 | 0.0 | 0.00 | 0.00 | 0.00 | 51 | 1016.3 |
| 20260509112046 | 55 | 0 | 0.0 | 3.0 | 0.00 | 0.00 | 0.00 | 52 | 1016.3 |
| 20260509111549 | 55 | 0 | 0.0 | 6.0 | 0.00 | 0.00 | 0.00 | 54 | 1016.3 |
| 20260509111045 | 55 | 11 | 2.0 | 6.0 | 0.00 | 0.00 | 0.00 | 54 | 1016.5 |
| 20260509110541 | 56 | 352 | 3.0 | 8.0 | 0.00 | 0.00 | 0.00 | 54 | 1016.5 |
| 20260509110048 | 56 | 321 | 3.0 | 8.0 | 0.00 | 0.00 | 0.00 | 54 | 1016.5 |
| 20260509105542 | 56 | 34 | 2.0 | 5.0 | 0.00 | 0.00 | 0.00 | 52 | 1016.5 |
| 20260509105041 | 56 | 0 | 0.0 | 3.0 | 0.00 | 0.00 | 0.00 | 48 | 1016.4 |
| 20260509104549 | 56 | 0 | 0.0 | 3.0 | 0.00 | 0.00 | 0.00 | 49 | 1016.4 |
| 20260509104041 | 56 | 71 | 0.0 | 2.0 | 0.00 | 0.00 | 0.00 | 48 | 1016.3 |
| 20260509103541 | 56 | 0 | 0.0 | 4.0 | 0.00 | 0.00 | 0.00 | 49 | 1016.4 |
| 20260509103050 | 56 | 0 | 0.0 | 4.0 | 0.00 | 0.00 | 0.00 | 49 | 1016.4 |
| 20260509102541 | 56 | 67 | 0.0 | 3.0 | 0.00 | 0.00 | 0.00 | 50 | 1016.4 |
| 20260509102043 | 56 | 0 | 0.0 | 3.0 | 0.00 | 0.00 | 0.00 | 51 | 1016.5 |
| 20260509101548 | 56 | 0 | 0.0 | 2.0 | 0.00 | 0.00 | 0.00 | 50 | 1016.5 |
| 20260509101041 | 56 | 0 | 0.0 | 2.0 | 0.00 | 0.00 | 0.00 | 51 | 1016.5 |
| 20260509100542 | 56 | 0 | 0.0 | 3.0 | 0.00 | 0.00 | 0.00 | 51 | 1016.5 |
| 20260509100046 | 56 | 0 | 0.0 | 3.0 | 0.00 | 0.00 | 0.00 | 51 | 1016.5 |
| 20260509095542 | 56 | 109 | 1.0 | 3.0 | 0.00 | 0.00 | 0.00 | 51 | 1016.5 |
| 20260509095042 | 55 | 0 | 0.0 | 3.0 | 0.00 | 0.00 | 0.00 | 52 | 1016.6 |
| 20260509094552 | 55 | 0 | 0.0 | 4.0 | 0.00 | 0.00 | 0.00 | 53 | 1016.6 |
| 20260509094041 | 55 | 279 | 1.0 | 4.0 | 0.00 | 0.00 | 0.00 | 53 | 1016.7 |
| 20260509093543 | 55 | 0 | 1.0 | 6.0 | 0.00 | 0.00 | 0.00 | 54 | 1016.6 |
| 20260509093050 | 55 | 0 | 1.0 | 6.0 | 0.00 | 0.00 | 0.00 | 54 | 1016.7 |
| 20260509092541 | 55 | 13 | 3.0 | 7.0 | 0.00 | 0.00 | 0.00 | 54 | 1016.8 |
| 20260509092042 | 55 | 11 | 3.0 | 7.0 | 0.00 | 0.00 | 0.00 | 55 | 1016.7 |
| 20260509091555 | 54 | 360 | 1.0 | 4.0 | 0.00 | 0.00 | 0.00 | 56 | 1016.8 |
| 20260509091042 | 54 | 0 | 1.0 | 6.0 | 0.00 | 0.00 | 0.00 | 56 | 1016.8 |
| 20260509090541 | 54 | 36 | 2.0 | 6.0 | 0.00 | 0.00 | 0.00 | 56 | 1016.8 |
| 20260509090059 | 53 | 28 | 1.0 | 6.0 | 0.00 | 0.00 | 0.00 | 56 | 1016.9 |
| 20260509085544 | 53 | 0 | 0.0 | 5.0 | 0.00 | 0.00 | 0.00 | 55 | 1016.9 |
| 20260509085041 | 53 | 232 | 0.0 | 5.0 | 0.00 | 0.00 | 0.00 | 54 | 1016.9 |
| 20260509084550 | 52 | 352 | 2.0 | 5.0 | 0.00 | 0.00 | 0.00 | 56 | 1017.0 |
| 20260509084041 | 52 | 288 | 1.0 | 5.0 | 0.00 | 0.00 | 0.00 | 56 | 1017.0 |
| 20260509083542 | 52 | 296 | 1.0 | 6.0 | 0.00 | 0.00 | 0.00 | 56 | 1017.0 |
| 20260509083054 | 52 | 287 | 0.0 | 7.0 | 0.00 | 0.00 | 0.00 | 56 | 1017.0 |
| 20260509082541 | 52 | 256 | 2.0 | 7.0 | 0.00 | 0.00 | 0.00 | 55 | 1017.0 |
| 20260509082041 | 52 | 244 | 2.0 | 7.0 | 0.00 | 0.00 | 0.00 | 55 | 1017.0 |
| 20260509081550 | 52 | 304 | 4.0 | 8.0 | 0.00 | 0.00 | 0.00 | 54 | 1017.0 |
| 20260509081043 | 52 | 302 | 3.0 | 9.0 | 0.00 | 0.00 | 0.00 | 54 | 1017.1 |
| 20260509080541 | 52 | 265 | 3.0 | 10.0 | 0.00 | 0.00 | 0.00 | 53 | 1017.1 |
| 20260509080106 | 52 | 325 | 3.0 | 10.0 | 0.00 | 0.00 | 0.00 | 52 | 1017.2 |
| 20260509075541 | 52 | 294 | 4.0 | 10.0 | 0.00 | 0.00 | 0.00 | 51 | 1017.1 |
| 20260509075043 | 52 | 329 | 3.0 | 9.0 | 0.00 | 0.00 | 0.00 | 51 | 1017.2 |
| 20260509074551 | 52 | 281 | 3.0 | 9.0 | 0.00 | 0.00 | 0.00 | 49 | 1017.1 |
| 20260509074045 | 51 | 246 | 4.0 | 8.0 | 0.00 | 0.00 | 0.00 | 46 | 1017.2 |
| 20260509073542 | 51 | 252 | 5.0 | 8.0 | 0.00 | 0.00 | 0.00 | 47 | 1017.2 |
| 20260509073102 | 51 | 252 | 3.0 | 9.0 | 0.00 | 0.00 | 0.00 | 48 | 1017.2 |
| 20260509072542 | 51 | 259 | 4.0 | 11.0 | 0.00 | 0.00 | 0.00 | 49 | 1017.4 |
| 20260509072041 | 51 | 260 | 5.0 | 11.0 | 0.00 | 0.00 | 0.00 | 49 | 1017.4 |
| 20260509071551 | 51 | 243 | 4.0 | 11.0 | 0.00 | 0.00 | 0.00 | 50 | 1017.3 |
| 20260509071041 | 51 | 225 | 6.0 | 11.0 | 0.00 | 0.00 | 0.00 | 51 | 1017.2 |
| 20260509070541 | 51 | 267 | 4.0 | 12.0 | 0.00 | 0.00 | 0.00 | 54 | 1017.3 |
| 20260509070055 | 51 | 154 | 4.0 | 12.0 | 0.00 | 0.00 | 0.00 | 56 | 1017.2 |
| 20260509065541 | 52 | 173 | 6.0 | 12.0 | 0.00 | 0.00 | 0.00 | 56 | 1017.3 |
| 20260509065040 | 52 | 153 | 6.0 | 11.0 | 0.00 | 0.00 | 0.00 | 52 | 1017.3 |
| 20260509064552 | 52 | 157 | 2.0 | 6.0 | 0.00 | 0.00 | 0.00 | 44 | 1017.1 |
| 20260509064042 | 52 | 0 | 2.0 | 5.0 | 0.00 | 0.00 | 0.00 | 46 | 1017.0 |
| 20260509063544 | 52 | 113 | 2.0 | 4.0 | 0.00 | 0.00 | 0.00 | 45 | 1017.1 |
| 20260509063100 | 52 | 105 | 2.0 | 4.0 | 0.00 | 0.00 | 0.00 | 45 | 1017.1 |
| 20260509062541 | 51 | 112 | 1.0 | 4.0 | 0.00 | 0.00 | 0.00 | 47 | 1017.1 |
| 20260509062041 | 51 | 106 | 2.0 | 4.0 | 0.00 | 0.00 | 0.00 | 47 | 1017.0 |
| 20260509061546 | 51 | 0 | 1.0 | 4.0 | 0.00 | 0.00 | 0.00 | 48 | 1017.0 |
| 20260509061041 | 51 | 106 | 0.0 | 4.0 | 0.00 | 0.00 | 0.00 | 50 | 1017.0 |
| 20260509060542 | 50 | 107 | 1.0 | 4.0 | 0.00 | 0.00 | 0.00 | 49 | 1017.0 |
| 20260509060054 | 50 | 0 | 1.0 | 4.0 | 0.00 | 0.00 | 0.00 | 49 | 1017.1 |
| 20260509055541 | 50 | 0 | 0.0 | 4.0 | 0.00 | 0.00 | 0.00 | 50 | 1017.1 |
| 20260509055040 | 50 | 98 | 0.0 | 3.0 | 0.00 | 0.00 | 0.00 | 51 | 1017.1 |
| 20260509054553 | 49 | 0 | 0.0 | 4.0 | 0.00 | 0.00 | 0.00 | 51 | 1017.1 |
| 20260509054040 | 49 | 0 | 1.0 | 4.0 | 0.00 | 0.00 | 0.00 | 51 | 1017.1 |
| 20260509053541 | 49 | 98 | 1.0 | 4.0 | 0.00 | 0.00 | 0.00 | 50 | 1017.2 |
| 20260509053048 | 49 | 123 | 0.0 | 3.0 | 0.00 | 0.00 | 0.00 | 53 | 1017.1 |
| 20260509052542 | 48 | 0 | 0.0 | 3.0 | 0.00 | 0.00 | 0.00 | 53 | 1017.1 |
| 20260509052041 | 48 | 134 | 0.0 | 3.0 | 0.00 | 0.00 | 0.00 | 53 | 1017.1 |
| 20260509051547 | 48 | 0 | 0.0 | 2.0 | 0.00 | 0.00 | 0.00 | 55 | 1017.2 |
| 20260509051043 | 48 | 0 | 0.0 | 2.0 | 0.00 | 0.00 | 0.00 | 54 | 1017.1 |
| 20260509050543 | 48 | 0 | 0.0 | 2.0 | 0.00 | 0.00 | 0.00 | 54 | 1017.1 |
| 20260509050059 | 47 | 0 | 0.0 | 0.0 | 0.00 | 0.00 | 0.00 | 57 | 1017.1 |
| 20260509045543 | 47 | 0 | 0.0 | 1.0 | 0.00 | 0.00 | 0.00 | 57 | 1017.1 |
| 20260509045043 | 47 | 0 | 0.0 | 1.0 | 0.00 | 0.00 | 0.00 | 57 | 1017.2 |
| 20260509044556 | 47 | 0 | 0.0 | 1.0 | 0.00 | 0.00 | 0.00 | 55 | 1017.2 |
| 20260509044044 | 47 | 0 | 0.0 | 2.0 | 0.00 | 0.00 | 0.00 | 56 | 1017.2 |
| 20260509043542 | 47 | 0 | 0.0 | 2.0 | 0.00 | 0.00 | 0.00 | 56 | 1017.2 |
| 20260509043101 | 47 | 0 | 0.0 | 2.0 | 0.00 | 0.00 | 0.00 | 56 | 1017.2 |
| 20260509042543 | 46 | 215 | 0.0 | 0.0 | 0.00 | 0.00 | 0.00 | 56 | 1017.3 |
| 20260509042043 | 46 | 0 | 0.0 | 3.0 | 0.00 | 0.00 | 0.00 | 57 | 1017.2 |
| 20260509041553 | 46 | 0 | 0.0 | 3.0 | 0.00 | 0.00 | 0.00 | 57 | 1017.3 |
| 20260509041043 | 46 | 215 | 0.0 | 3.0 | 0.00 | 0.00 | 0.00 | 58 | 1017.2 |
| 20260509040546 | 46 | 0 | 0.0 | 0.0 | 0.00 | 0.00 | 0.00 | 57 | 1017.2 |
| 20260509040051 | 46 | 0 | 0.0 | 0.0 | 0.00 | 0.00 | 0.00 | 56 | 1017.3 |
| 20260509035543 | 46 | 0 | 0.0 | 0.0 | 0.00 | 0.00 | 0.00 | 56 | 1017.3 |
| 20260509035043 | 46 | 0 | 0.0 | 0.0 | 0.00 | 0.00 | 0.00 | 56 | 1017.3 |
| 20260509034547 | 46 | 0 | 0.0 | 0.0 | 0.00 | 0.00 | 0.00 | 56 | 1017.2 |
| 20260509034044 | 46 | 0 | 0.0 | 0.0 | 0.00 | 0.00 | 0.00 | 56 | 1017.2 |
| 20260509033543 | 46 | 0 | 0.0 | 0.0 | 0.00 | 0.00 | 0.00 | 55 | 1017.2 |
| 20260509033105 | 46 | 0 | 0.0 | 0.0 | 0.00 | 0.00 | 0.00 | 55 | 1017.2 |
| 20260509032543 | 46 | 0 | 0.0 | 0.0 | 0.00 | 0.00 | 0.00 | 54 | 1017.2 |
| 20260509032042 | 46 | 0 | 0.0 | 0.0 | 0.00 | 0.00 | 0.00 | 54 | 1017.3 |
| 20260509031555 | 46 | 0 | 0.0 | 0.0 | 0.00 | 0.00 | 0.00 | 54 | 1017.3 |
| 20260509031043 | 46 | 0 | 0.0 | 0.0 | 0.00 | 0.00 | 0.00 | 53 | 1017.4 |
| 20260509030543 | 46 | 0 | 0.0 | 2.0 | 0.00 | 0.00 | 0.00 | 53 | 1017.4 |
| 20260509030049 | 46 | 0 | 0.0 | 4.0 | 0.00 | 0.00 | 0.00 | 53 | 1017.4 |
| 20260509025544 | 46 | 0 | 0.0 | 4.0 | 0.00 | 0.03 | 0.00 | 53 | 1017.5 |
| 20260509025043 | 46 | 0 | 1.0 | 3.0 | 0.00 | 0.03 | 0.00 | 52 | 1017.5 |
| 20260509024557 | 46 | 0 | 0.0 | 5.0 | 0.00 | 0.03 | 0.00 | 51 | 1017.5 |
| 20260509024044 | 46 | 0 | 0.0 | 6.0 | 0.00 | 0.03 | 0.00 | 52 | 1017.5 |
| 20260509023542 | 47 | 0 | 1.0 | 6.0 | 0.00 | 0.03 | 0.00 | 52 | 1017.5 |
| 20260509023054 | 47 | 80 | 0.0 | 8.0 | 0.00 | 0.03 | 0.00 | 52 | 1017.5 |
| 20260509022543 | 47 | 0 | 1.0 | 8.0 | 0.00 | 0.03 | 0.00 | 52 | 1017.5 |
| 20260509022049 | 47 | 100 | 2.0 | 8.0 | 0.00 | 0.03 | 0.00 | 51 | 1017.6 |
| 20260509021555 | 47 | 82 | 2.0 | 7.0 | 0.00 | 0.03 | 0.00 | 51 | 1017.6 |
| 20260509021046 | 47 | 46 | 1.0 | 7.0 | 0.00 | 0.03 | 0.00 | 51 | 1017.6 |
| 20260509020543 | 47 | 69 | 1.0 | 7.0 | 0.00 | 0.03 | 0.00 | 51 | 1017.7 |
| 20260509020050 | 47 | 0 | 1.0 | 7.0 | 0.00 | 0.03 | 0.00 | 51 | 1017.6 |
| 20260509015543 | 47 | 30 | 1.0 | 7.0 | 0.00 | 0.03 | 0.00 | 51 | 1017.6 |
| 20260509015045 | 47 | 174 | 0.0 | 4.0 | 0.00 | 0.03 | 0.00 | 52 | 1017.6 |
| 20260509014550 | 47 | 0 | 0.0 | 4.0 | 0.00 | 0.03 | 0.00 | 52 | 1017.7 |
| 20260509014044 | 47 | 104 | 0.0 | 7.0 | 0.00 | 0.03 | 0.00 | 53 | 1017.7 |
| 20260509013543 | 47 | 0 | 1.0 | 7.0 | 0.00 | 0.03 | 0.00 | 52 | 1017.8 |
| 20260509013050 | 47 | 173 | 2.0 | 8.0 | 0.00 | 0.03 | 0.00 | 53 | 1017.8 |
| 20260509012542 | 47 | 61 | 3.0 | 9.0 | 0.00 | 0.03 | 0.00 | 52 | 1017.9 |
| 20260509012045 | 47 | 96 | 3.0 | 9.0 | 0.00 | 0.03 | 0.00 | 52 | 1017.9 |
| 20260509011601 | 47 | 98 | 3.0 | 8.0 | 0.00 | 0.03 | 0.00 | 52 | 1017.9 |
| 20260509011042 | 47 | 92 | 3.0 | 9.0 | 0.00 | 0.03 | 0.00 | 52 | 1017.9 |
| 20260509010542 | 47 | 88 | 4.0 | 13.0 | 0.00 | 0.03 | 0.00 | 52 | 1017.9 |
| 20260509010057 | 47 | 84 | 4.0 | 13.0 | 0.00 | 0.03 | 0.00 | 52 | 1018.0 |
| 20260509005542 | 47 | 148 | 2.0 | 11.0 | 0.00 | 0.03 | 0.00 | 52 | 1018.1 |
| 20260509005043 | 47 | 82 | 4.0 | 11.0 | 0.00 | 0.03 | 0.00 | 51 | 1018.1 |
| 20260509004558 | 47 | 97 | 5.0 | 11.0 | 0.00 | 0.03 | 0.00 | 52 | 1018.1 |